Powrót do katalogu

DELTA 1 DEB

AktywnySSO
NORAD 37636·DEBRIS·🇺🇸 United States

Wystrzelony Mar 5, 1978 z Vandenberg Space Force Base

Loading…

Następne Przeloty (najbliższe 24 godziny)

TLE

Starzejące sięSource: Space-Track

Epoka: Sep 9, 2026, 16:59 UTC

1 37636U 78026HX  26252.70781081  .00000430  00000-0  29625-3 0  9991
2 37636  98.9478 200.3908 0058011 134.0858 226.5104 14.03784526769820

Śledź DELTA 1 DEB w czasie rzeczywistym z AllMySat

Download on the App Store